Weather in Ringsaker

Norway     60°54′13″N   10°43′25″E
temp.,
°C
wind,
m/s
gust,
m/s
humid.,
%
clouds,
%
prec.,
mm/h
press.,
hPa
HPBL,
m
4 december, sat
sat401:00−10e1294100 1.3 1003160
04:00−10e129593 0.4 100496
07:00−10ene129596 0.9 1005116
10:00−9ene1295100 0.4 100788
13:00−8e1293100 0.8 1009168
16:00−10ne119784 0.2 101120
19:00−10nne1196100 0.3 101325
22:00−10nne1197100 0.1 101518
5 december, sun
sun501:00−10ne1197100 0.4 101821
04:00−11ne1198100 0.3 102014
07:00−11ene1198100 0.4 102117
10:00−10e1195100 0.1 102455
13:00−9ese128491 0.1 1024314
16:00−12ene1197100 0.0 102510
19:00−14ne119778 0.0 102611
22:00−14ne119874 0.0 102710
6 december, mon
mon601:00−14ne119881 0.0 102710
04:00−14e119988 0.1 102516
07:00−14ese1199100 0.1 102420
10:00−13se1394100 0.1 1023143
13:00−11se1389100 0.1 1022305
16:00−12ese1297100 0.1 102186
19:00−13ese1397100 0.3 102097
22:00−12ese1397100 0.2 1019111
7 december, tue
tue701:00−12ese1396100 0.4 1019110
04:00−12e119795 0.1 101953
07:00−13ese119795 0.3 101940
10:00−12e119697 0.1 102059
13:00−11se1193100 0.3 1020148
16:00−12ese1198100 0.2 102027
19:00−12se0198100 0.3 102033
22:00−11e1197100 0.1 102018
8 december, wed
wed801:00−11ene1198100 0.3 102017
04:00−10se0196100 0.3 102047
07:00−10se0097100 0.6 102023
10:00−10se1196100 0.2 102157
13:00−8sse0193100 0.6 1022128
16:00−11ne1198100 0.1 102310
19:00−10nne1197100 0.3 102415
22:00−11nne119998 0.1 102511